N926 LIEE-LEPA

Flight info

Callsign N926
Flight time 1h 42m
Altitude 12000
Route DCT
Aircraft PC12/L-VGD/A

Departure

Time 2026-05-07 17:46
Airport Cagliari Elmas Airport (LIEE)

Arrival

Time 2026-05-07 19:28
Airport Palma de Mallorca Airport (LEPA)
Time Latitude Longitude Altitude Speed Heading
2026-05-07 17:25 39.25484 9.05793 13 ft 0 kts 323°
2026-05-07 17:34 39.25475 9.05802 13 ft 3 kts 323°
2026-05-07 17:34 39.25460 9.05817 13 ft 3 kts 323°
2026-05-07 17:34 39.25457 9.05820 13 ft 0 kts 323°
2026-05-07 17:42 39.25462 9.05811 13 ft 4 kts 289°
2026-05-07 17:42 39.25442 9.05751 13 ft 11 kts 246°
2026-05-07 17:42 39.25406 9.05652 13 ft 13 kts 234°
2026-05-07 17:42 39.25397 9.05543 13 ft 13 kts 282°
2026-05-07 17:43 39.25390 9.05433 14 ft 13 kts 230°
2026-05-07 17:43 39.25333 9.05339 13 ft 14 kts 231°
2026-05-07 17:43 39.25254 9.05313 13 ft 13 kts 147°
2026-05-07 17:43 39.25197 9.05373 13 ft 0 kts 138°
2026-05-07 17:44 39.25197 9.05374 13 ft 0 kts 138°
2026-05-07 17:44 39.25192 9.05379 13 ft 5 kts 138°
2026-05-07 17:45 39.25074 9.05516 14 ft 49 kts 137°
2026-05-07 17:45 39.24699 9.05953 12 ft 91 kts 137°
2026-05-07 17:45 39.24176 9.06565 119 ft 109 kts 137°
2026-05-07 17:45 39.23581 9.07198 428 ft 112 kts 146°
2026-05-07 17:46 39.22812 9.07475 752 ft 121 kts 179°
2026-05-07 17:46 39.22050 9.07044 1221 ft 125 kts 223°
2026-05-07 17:46 39.21538 9.06074 1570 ft 134 kts 237°
2026-05-07 17:46 39.21076 9.05014 1988 ft 138 kts 239°
2026-05-07 17:47 39.20597 9.03910 2248 ft 147 kts 239°
2026-05-07 17:47 39.20082 9.02729 2506 ft 156 kts 238°
2026-05-07 17:47 39.19514 9.01441 2739 ft 174 kts 239°
2026-05-07 17:47 39.18881 9.00027 2998 ft 191 kts 239°
2026-05-07 17:48 39.18193 8.98503 3256 ft 202 kts 239°
2026-05-07 17:48 39.17472 8.96912 3507 ft 210 kts 239°
2026-05-07 17:48 39.16728 8.95268 3757 ft 215 kts 239°
2026-05-07 17:48 39.15975 8.93596 4060 ft 216 kts 239°
2026-05-07 17:49 39.15232 8.91944 4375 ft 216 kts 239°
2026-05-07 17:49 39.14486 8.90277 4703 ft 214 kts 239°
2026-05-07 17:49 39.13747 8.88620 5027 ft 213 kts 239°
2026-05-07 17:49 39.13309 8.86844 5347 ft 212 kts 271°
2026-05-07 17:50 39.13698 8.85028 5671 ft 211 kts 293°
2026-05-07 17:50 39.14298 8.83301 6003 ft 211 kts 295°
2026-05-07 17:50 39.14916 8.81583 6322 ft 210 kts 295°
2026-05-07 17:50 39.15534 8.79873 6651 ft 210 kts 295°
2026-05-07 17:51 39.16146 8.78178 6964 ft 211 kts 295°
2026-05-07 17:51 39.16763 8.76466 7298 ft 211 kts 295°
2026-05-07 17:51 39.17383 8.74748 7623 ft 213 kts 295°
2026-05-07 17:51 39.18008 8.73014 7947 ft 214 kts 295°
2026-05-07 17:52 39.18634 8.71276 8275 ft 214 kts 295°
2026-05-07 17:52 39.19263 8.69528 8596 ft 215 kts 295°
2026-05-07 17:52 39.19891 8.67783 8921 ft 214 kts 295°
2026-05-07 17:52 39.20518 8.66039 9238 ft 215 kts 295°
2026-05-07 17:53 39.21137 8.64320 9569 ft 214 kts 295°
2026-05-07 17:53 39.21773 8.62580 9893 ft 214 kts 295°
2026-05-07 17:53 39.22414 8.60851 10218 ft 213 kts 295°
2026-05-07 17:53 39.23058 8.59135 10540 ft 212 kts 295°
2026-05-07 17:54 39.23706 8.57435 10867 ft 210 kts 295°
2026-05-07 17:54 39.24354 8.55753 11189 ft 209 kts 295°
2026-05-07 17:54 39.25008 8.54088 11518 ft 208 kts 295°
2026-05-07 17:54 39.25672 8.52425 11848 ft 209 kts 295°
2026-05-07 17:55 39.26352 8.50747 11921 ft 220 kts 295°
2026-05-07 17:55 39.27079 8.48957 11925 ft 229 kts 295°
2026-05-07 17:55 39.27826 8.47116 11927 ft 236 kts 295°
2026-05-07 17:55 39.28592 8.45219 11929 ft 240 kts 295°
2026-05-07 17:56 39.29368 8.43290 11928 ft 244 kts 295°
2026-05-07 17:56 39.30149 8.41342 11928 ft 245 kts 295°
2026-05-07 17:56 39.30933 8.39388 11928 ft 246 kts 295°
2026-05-07 17:56 39.31719 8.37427 11928 ft 246 kts 295°
2026-05-07 17:57 39.32496 8.35491 11928 ft 246 kts 295°
2026-05-07 17:57 39.33029 8.34165 11929 ft 246 kts 295°
2026-05-07 17:57 39.34071 8.31555 11928 ft 247 kts 295°
2026-05-07 17:57 39.34855 8.29583 11929 ft 247 kts 295°
2026-05-07 17:58 39.35641 8.27608 11929 ft 247 kts 295°
2026-05-07 17:58 39.36427 8.25631 11929 ft 247 kts 295°
2026-05-07 17:58 39.37214 8.23653 11929 ft 248 kts 295°
2026-05-07 17:58 39.38001 8.21673 11929 ft 248 kts 295°
2026-05-07 17:59 39.38778 8.19716 11929 ft 248 kts 295°
2026-05-07 17:59 39.39561 8.17728 11929 ft 248 kts 295°
2026-05-07 17:59 39.40345 8.15736 11930 ft 249 kts 295°
2026-05-07 17:59 39.41130 8.13739 11929 ft 250 kts 295°
2026-05-07 18:00 39.41921 8.11724 11930 ft 252 kts 295°
2026-05-07 18:00 39.42717 8.09697 11930 ft 253 kts 295°
2026-05-07 18:00 39.43517 8.07661 11930 ft 254 kts 295°
2026-05-07 18:00 39.44318 8.05619 11930 ft 255 kts 295°
2026-05-07 18:01 39.45110 8.03599 11931 ft 255 kts 295°
2026-05-07 18:01 39.45909 8.01546 11931 ft 256 kts 295°
2026-05-07 18:01 39.46708 7.99490 11931 ft 256 kts 295°
2026-05-07 18:01 39.47508 7.97431 11930 ft 256 kts 295°
2026-05-07 18:02 39.49110 7.93304 11931 ft 257 kts 295°
2026-05-07 18:02 39.49912 7.91236 11931 ft 257 kts 295°
2026-05-07 18:02 39.50715 7.89167 11931 ft 257 kts 295°
2026-05-07 18:03 39.51507 7.87123 11931 ft 257 kts 295°
2026-05-07 18:03 39.52310 7.85050 11931 ft 257 kts 295°
2026-05-07 18:03 39.53113 7.82977 11931 ft 257 kts 295°
2026-05-07 18:03 39.53915 7.80906 11931 ft 258 kts 295°
2026-05-07 18:04 39.54718 7.78830 11931 ft 258 kts 295°
2026-05-07 18:04 39.55522 7.76753 11931 ft 258 kts 295°
2026-05-07 18:04 39.56326 7.74675 11931 ft 258 kts 295°
2026-05-07 18:04 39.57119 7.72624 11931 ft 258 kts 295°
2026-05-07 18:05 39.57922 7.70547 11931 ft 258 kts 295°
2026-05-07 18:05 39.58726 7.68468 11931 ft 258 kts 295°
2026-05-07 18:05 39.59529 7.66388 11931 ft 258 kts 295°
2026-05-07 18:05 39.60333 7.64309 11931 ft 258 kts 295°
2026-05-07 18:06 39.61138 7.62224 11931 ft 258 kts 295°
2026-05-07 18:06 39.61942 7.60142 11931 ft 258 kts 295°
2026-05-07 18:06 39.62747 7.58057 11931 ft 259 kts 295°
2026-05-07 18:06 39.63542 7.55998 11931 ft 259 kts 295°
2026-05-07 18:07 39.64347 7.53911 11931 ft 259 kts 295°
2026-05-07 18:07 39.65152 7.51824 11931 ft 259 kts 295°
2026-05-07 18:07 39.65957 7.49736 11931 ft 259 kts 295°
2026-05-07 18:07 39.66761 7.47650 11931 ft 259 kts 295°
2026-05-07 18:08 39.67566 7.45562 11931 ft 259 kts 295°
2026-05-07 18:08 39.68371 7.43472 11931 ft 259 kts 295°
2026-05-07 18:08 39.69176 7.41383 11931 ft 258 kts 295°
2026-05-07 18:08 39.69970 7.39322 11931 ft 259 kts 295°
2026-05-07 18:09 39.70776 7.37231 11931 ft 259 kts 295°
2026-05-07 18:09 39.71582 7.35138 11931 ft 259 kts 295°
2026-05-07 18:09 39.72387 7.33044 11931 ft 259 kts 295°
2026-05-07 18:09 39.73200 7.30950 11930 ft 260 kts 295°
2026-05-07 18:10 39.74019 7.28849 11931 ft 261 kts 295°
2026-05-07 18:10 39.74838 7.26745 11931 ft 261 kts 295°
2026-05-07 18:10 39.75644 7.24670 11931 ft 262 kts 295°
2026-05-07 18:10 39.76465 7.22557 11931 ft 262 kts 295°
2026-05-07 18:11 39.77284 7.20452 11931 ft 261 kts 295°
2026-05-07 18:11 39.77838 7.19028 11931 ft 261 kts 295°
2026-05-07 18:11 39.78927 7.16229 11931 ft 261 kts 295°
2026-05-07 18:11 39.79746 7.14126 11931 ft 261 kts 295°
2026-05-07 18:12 39.80568 7.12011 11933 ft 261 kts 295°
2026-05-07 18:12 39.81388 7.09904 11933 ft 261 kts 295°
2026-05-07 18:12 39.82056 7.07738 11928 ft 257 kts 283°
2026-05-07 18:12 39.82450 7.05477 11930 ft 256 kts 279°
2026-05-07 18:13 39.82786 7.03228 11930 ft 257 kts 278°
2026-05-07 18:13 39.83120 7.00943 11930 ft 257 kts 278°
2026-05-07 18:13 39.83452 6.98653 11930 ft 257 kts 278°
2026-05-07 18:13 39.83779 6.96364 11930 ft 257 kts 278°
2026-05-07 18:14 39.84105 6.94076 11930 ft 257 kts 278°
2026-05-07 18:14 39.84430 6.91790 11930 ft 257 kts 278°
2026-05-07 18:14 39.84756 6.89501 11930 ft 257 kts 278°
2026-05-07 18:14 39.85077 6.87242 11930 ft 257 kts 278°
2026-05-07 18:15 39.85402 6.84954 11930 ft 257 kts 279°
2026-05-07 18:15 39.85724 6.82662 11930 ft 257 kts 278°
2026-05-07 18:15 39.86044 6.80372 11930 ft 257 kts 278°
2026-05-07 18:15 39.86364 6.78083 11930 ft 257 kts 278°
2026-05-07 18:16 39.86683 6.75795 11930 ft 257 kts 278°
2026-05-07 18:16 39.87002 6.73505 11930 ft 257 kts 279°
2026-05-07 18:16 39.87317 6.71212 11930 ft 257 kts 278°
2026-05-07 18:16 39.87625 6.68951 11930 ft 257 kts 278°
2026-05-07 18:17 39.87937 6.66659 11930 ft 257 kts 278°
2026-05-07 18:17 39.88249 6.64367 11930 ft 257 kts 278°
2026-05-07 18:17 39.88559 6.62077 11930 ft 257 kts 278°
2026-05-07 18:17 39.88865 6.59785 11930 ft 257 kts 278°
2026-05-07 18:18 39.89170 6.57491 11931 ft 257 kts 278°
2026-05-07 18:18 39.89474 6.55199 11930 ft 257 kts 278°
2026-05-07 18:18 39.89777 6.52903 11937 ft 257 kts 278°
2026-05-07 18:18 39.90072 6.50637 11936 ft 257 kts 278°
2026-05-07 18:19 39.90369 6.48341 11937 ft 257 kts 278°
2026-05-07 18:19 39.90666 6.46046 11937 ft 257 kts 278°
2026-05-07 18:19 39.90962 6.43751 11936 ft 257 kts 278°
2026-05-07 18:19 39.91254 6.41455 11936 ft 257 kts 278°
2026-05-07 18:20 39.91544 6.39157 11937 ft 257 kts 278°
2026-05-07 18:20 39.91834 6.36861 11937 ft 257 kts 278°
2026-05-07 18:20 39.92123 6.34562 11936 ft 257 kts 278°
2026-05-07 18:20 39.92410 6.32262 11936 ft 257 kts 278°
2026-05-07 18:21 39.92690 6.29991 11936 ft 257 kts 278°
2026-05-07 18:21 39.92973 6.27689 11937 ft 257 kts 278°
2026-05-07 18:21 39.93256 6.25386 11936 ft 257 kts 278°
2026-05-07 18:21 39.93539 6.23083 11936 ft 257 kts 278°
2026-05-07 18:22 39.93783 6.20779 11936 ft 256 kts 273°
2026-05-07 18:22 39.93803 6.20000 11936 ft 255 kts 270°
2026-05-07 18:22 39.93650 6.16165 11935 ft 255 kts 263°
2026-05-07 18:22 39.93393 6.13877 11936 ft 256 kts 261°
2026-05-07 18:23 39.93114 6.11618 11936 ft 256 kts 261°
2026-05-07 18:23 39.92827 6.09326 11936 ft 257 kts 261°
2026-05-07 18:23 39.92539 6.07029 11937 ft 257 kts 261°
2026-05-07 18:23 39.92252 6.04730 11936 ft 257 kts 261°
2026-05-07 18:24 39.92017 6.02423 11936 ft 257 kts 263°
2026-05-07 18:24 39.91815 6.00110 11936 ft 257 kts 263°
2026-05-07 18:24 39.91619 5.97793 11936 ft 257 kts 263°
2026-05-07 18:24 39.91422 5.95476 11936 ft 257 kts 263°
2026-05-07 18:25 39.91229 5.93190 11936 ft 257 kts 263°
2026-05-07 18:25 39.91033 5.90871 11937 ft 258 kts 263°
2026-05-07 18:25 39.90836 5.88553 11936 ft 258 kts 263°
2026-05-07 18:25 39.90640 5.86234 11937 ft 258 kts 263°
2026-05-07 18:26 39.90443 5.83913 11936 ft 258 kts 263°
2026-05-07 18:26 39.90246 5.81592 11936 ft 258 kts 263°
2026-05-07 18:26 39.90049 5.79270 11936 ft 258 kts 263°
2026-05-07 18:26 39.89852 5.76953 11936 ft 258 kts 263°
2026-05-07 18:27 39.89657 5.74666 11937 ft 258 kts 263°
2026-05-07 18:27 39.89460 5.72348 11937 ft 258 kts 263°
2026-05-07 18:27 39.89266 5.70028 11936 ft 257 kts 263°
2026-05-07 18:27 39.89136 5.68463 11936 ft 257 kts 263°
2026-05-07 18:28 39.88882 5.65395 11936 ft 257 kts 263°
2026-05-07 18:28 39.88691 5.63080 11936 ft 257 kts 263°
2026-05-07 18:28 39.88500 5.60765 11936 ft 257 kts 263°
2026-05-07 18:28 39.88308 5.58453 11936 ft 257 kts 263°
2026-05-07 18:29 39.88181 5.56919 11936 ft 257 kts 263°
2026-05-07 18:29 39.87928 5.53855 11936 ft 257 kts 263°
2026-05-07 18:29 39.87736 5.51539 11936 ft 257 kts 263°
2026-05-07 18:29 39.87545 5.49222 11936 ft 257 kts 263°
2026-05-07 18:30 39.87353 5.46907 11936 ft 257 kts 263°
2026-05-07 18:30 39.87164 5.44593 11936 ft 257 kts 263°
2026-05-07 18:30 39.87042 5.43062 11936 ft 257 kts 263°
2026-05-07 18:30 39.86856 5.40751 11936 ft 257 kts 263°
2026-05-07 18:31 39.86671 5.38437 11937 ft 257 kts 263°
2026-05-07 18:31 39.86426 5.35371 11938 ft 257 kts 263°
2026-05-07 18:31 39.86240 5.33054 11936 ft 257 kts 263°
2026-05-07 18:31 39.86054 5.30737 11936 ft 257 kts 263°
2026-05-07 18:32 39.85928 5.29172 11936 ft 257 kts 263°
2026-05-07 18:32 39.85745 5.26887 11936 ft 257 kts 263°
2026-05-07 18:32 39.85559 5.24571 11936 ft 257 kts 263°
2026-05-07 18:32 39.85372 5.22254 11936 ft 257 kts 263°
2026-05-07 18:33 39.85189 5.19939 11937 ft 257 kts 263°
2026-05-07 18:33 39.85011 5.17630 11937 ft 257 kts 263°
2026-05-07 18:33 39.84831 5.15315 11936 ft 257 kts 263°
2026-05-07 18:33 39.84593 5.12251 11936 ft 257 kts 263°
2026-05-07 18:34 39.84473 5.10690 11936 ft 257 kts 263°
2026-05-07 18:34 39.84294 5.08375 11936 ft 257 kts 263°
2026-05-07 18:34 39.84117 5.06093 11936 ft 257 kts 263°
2026-05-07 18:34 39.83937 5.03779 11936 ft 257 kts 263°
2026-05-07 18:35 39.83756 5.01462 11936 ft 257 kts 263°
2026-05-07 18:35 39.83576 4.99145 11936 ft 258 kts 263°
2026-05-07 18:35 39.83397 4.96829 11937 ft 258 kts 263°
2026-05-07 18:35 39.83217 4.94509 11936 ft 258 kts 263°
2026-05-07 18:36 39.83036 4.92188 11936 ft 258 kts 263°
2026-05-07 18:36 39.82856 4.89866 11936 ft 258 kts 263°
2026-05-07 18:36 39.82677 4.87545 11936 ft 258 kts 263°
2026-05-07 18:36 39.82500 4.85255 11936 ft 258 kts 263°
2026-05-07 18:37 39.82320 4.82934 11936 ft 258 kts 263°
2026-05-07 18:37 39.82139 4.80612 11937 ft 258 kts 263°
2026-05-07 18:37 39.81958 4.78289 11937 ft 259 kts 263°
2026-05-07 18:37 39.81777 4.75962 11937 ft 259 kts 263°
2026-05-07 18:38 39.81595 4.73634 11936 ft 259 kts 263°
2026-05-07 18:38 39.81414 4.71308 11936 ft 258 kts 263°
2026-05-07 18:38 39.81234 4.69013 11936 ft 258 kts 263°
2026-05-07 18:38 39.81051 4.66688 11936 ft 259 kts 263°
2026-05-07 18:39 39.80868 4.64360 11936 ft 259 kts 263°
2026-05-07 18:39 39.80685 4.62035 11936 ft 259 kts 263°
2026-05-07 18:39 39.80502 4.59710 11936 ft 259 kts 263°
2026-05-07 18:39 39.80319 4.57383 11936 ft 259 kts 263°
2026-05-07 18:40 39.80135 4.55055 11936 ft 259 kts 263°
2026-05-07 18:40 39.79890 4.52743 11936 ft 258 kts 259°
2026-05-07 18:40 39.79565 4.50449 11936 ft 258 kts 258°
2026-05-07 18:40 39.79227 4.48193 11936 ft 258 kts 258°
2026-05-07 18:41 39.78880 4.45900 11936 ft 259 kts 258°
2026-05-07 18:41 39.78532 4.43606 11936 ft 259 kts 258°
2026-05-07 18:41 39.78184 4.41311 11919 ft 259 kts 258°
2026-05-07 18:41 39.77835 4.38995 11716 ft 262 kts 258°
2026-05-07 18:42 39.77493 4.36708 11520 ft 262 kts 258°
2026-05-07 18:42 39.77148 4.34379 11320 ft 263 kts 258°
2026-05-07 18:42 39.76811 4.32072 11125 ft 264 kts 258°
2026-05-07 18:42 39.76472 4.29731 10921 ft 264 kts 258°
2026-05-07 18:43 39.76135 4.27383 10721 ft 264 kts 258°
2026-05-07 18:43 39.75800 4.25035 10521 ft 265 kts 258°
2026-05-07 18:43 39.75469 4.22680 10320 ft 265 kts 258°
2026-05-07 18:43 39.75140 4.20318 10120 ft 265 kts 258°
2026-05-07 18:44 39.74813 4.17957 9919 ft 266 kts 258°
2026-05-07 18:44 39.74494 4.15627 9723 ft 266 kts 258°
2026-05-07 18:44 39.74174 4.13261 9535 ft 266 kts 258°
2026-05-07 18:44 39.73861 4.10895 9361 ft 265 kts 258°
2026-05-07 18:45 39.73551 4.08532 9186 ft 266 kts 258°
2026-05-07 18:45 39.73243 4.06163 9015 ft 266 kts 258°
2026-05-07 18:45 39.72938 4.03794 8834 ft 266 kts 258°
2026-05-07 18:45 39.72635 4.01423 8659 ft 266 kts 258°
2026-05-07 18:46 39.72334 3.99060 8484 ft 265 kts 258°
2026-05-07 18:46 39.72037 3.96732 8311 ft 264 kts 258°
2026-05-07 18:46 39.71733 3.94379 8135 ft 264 kts 258°
2026-05-07 18:46 39.71431 3.92028 7960 ft 264 kts 258°
2026-05-07 18:47 39.71129 3.89681 7774 ft 263 kts 258°
2026-05-07 18:47 39.70827 3.87341 7610 ft 263 kts 258°
2026-05-07 18:47 39.70516 3.85010 7437 ft 261 kts 256°
2026-05-07 18:47 39.70108 3.82715 7259 ft 260 kts 253°
2026-05-07 18:48 39.69664 3.80435 7085 ft 261 kts 253°
2026-05-07 18:48 39.69219 3.78166 6913 ft 259 kts 253°
2026-05-07 18:48 39.68782 3.75941 6736 ft 257 kts 253°
2026-05-07 18:48 39.68342 3.73698 6560 ft 256 kts 253°
2026-05-07 18:49 39.67905 3.71464 6385 ft 255 kts 253°
2026-05-07 18:49 39.67467 3.69236 6209 ft 254 kts 253°
2026-05-07 18:49 39.67031 3.67013 6034 ft 254 kts 253°
2026-05-07 18:49 39.66599 3.64812 5997 ft 248 kts 253°
2026-05-07 18:50 39.66179 3.62665 5996 ft 243 kts 253°
2026-05-07 18:50 39.65696 3.60580 5996 ft 241 kts 249°
2026-05-07 18:50 39.65155 3.58537 5998 ft 244 kts 248°
2026-05-07 18:50 39.64594 3.56455 5998 ft 245 kts 248°
2026-05-07 18:51 39.64030 3.54362 5999 ft 246 kts 248°
2026-05-07 18:51 39.63465 3.52265 5999 ft 246 kts 248°
2026-05-07 18:51 39.62899 3.50166 5997 ft 246 kts 248°
2026-05-07 18:51 39.62333 3.48069 5999 ft 247 kts 248°
2026-05-07 18:52 39.61765 3.45965 5999 ft 247 kts 248°
2026-05-07 18:52 39.61195 3.43865 5999 ft 246 kts 248°
2026-05-07 18:52 39.60560 3.41811 5997 ft 245 kts 244°
2026-05-07 18:52 39.59885 3.39779 5999 ft 245 kts 244°
2026-05-07 18:53 39.59216 3.37782 5999 ft 245 kts 244°
2026-05-07 18:53 39.58533 3.35747 6000 ft 246 kts 244°
2026-05-07 18:53 39.57851 3.33712 5998 ft 246 kts 244°
2026-05-07 18:53 39.57168 3.31675 6000 ft 247 kts 244°
2026-05-07 18:54 39.56482 3.29631 5906 ft 250 kts 244°
2026-05-07 18:54 39.55789 3.27567 5733 ft 248 kts 244°
2026-05-07 18:54 39.55103 3.25539 5559 ft 244 kts 244°
2026-05-07 18:54 39.54425 3.23539 5383 ft 240 kts 244°
2026-05-07 18:55 39.53758 3.21571 5204 ft 237 kts 244°
2026-05-07 18:55 39.53106 3.19652 5031 ft 235 kts 244°
2026-05-07 18:55 39.52450 3.17727 4856 ft 233 kts 243°
2026-05-07 18:55 39.51720 3.15862 4678 ft 232 kts 239°
2026-05-07 18:56 39.50949 3.14026 4505 ft 232 kts 239°
2026-05-07 18:56 39.50172 3.12188 4328 ft 233 kts 239°
2026-05-07 18:56 39.49392 3.10345 4156 ft 233 kts 239°
2026-05-07 18:56 39.48611 3.08506 3981 ft 233 kts 239°
2026-05-07 18:57 39.47829 3.06669 3805 ft 233 kts 239°
2026-05-07 18:57 39.47049 3.04834 3630 ft 232 kts 239°
2026-05-07 18:57 39.46269 3.03002 3455 ft 232 kts 239°
2026-05-07 18:57 39.45502 3.01198 3282 ft 231 kts 239°
2026-05-07 18:58 39.44610 2.99491 3106 ft 229 kts 230°
2026-05-07 18:58 39.43633 2.97880 3011 ft 225 kts 229°
2026-05-07 18:58 39.42671 2.96315 3011 ft 220 kts 229°
2026-05-07 18:58 39.41728 2.94780 3010 ft 217 kts 229°
2026-05-07 18:59 39.40860 2.93217 3004 ft 214 kts 243°
2026-05-07 18:59 39.40732 2.91317 2997 ft 218 kts 284°
2026-05-07 18:59 39.41533 2.89700 2999 ft 214 kts 317°
2026-05-07 18:59 39.42669 2.88459 2999 ft 214 kts 322°
2026-05-07 19:00 39.43819 2.87278 2890 ft 212 kts 323°
2026-05-07 19:00 39.44863 2.86000 2762 ft 203 kts 313°
2026-05-07 19:00 39.45762 2.84621 2636 ft 198 kts 311°
2026-05-07 19:00 39.46609 2.83288 2506 ft 181 kts 311°
2026-05-07 19:01 39.47364 2.82083 2373 ft 164 kts 311°
2026-05-07 19:01 39.47983 2.80922 2306 ft 150 kts 302°
2026-05-07 19:01 39.48456 2.79849 2311 ft 135 kts 301°
2026-05-07 19:01 39.48890 2.78851 2302 ft 120 kts 302°
2026-05-07 19:02 39.49264 2.77979 2257 ft 104 kts 302°
2026-05-07 19:02 39.49596 2.77174 2171 ft 101 kts 296°
2026-05-07 19:02 39.49859 2.76308 2111 ft 108 kts 294°
2026-05-07 19:02 39.50143 2.75371 2023 ft 113 kts 294°
2026-05-07 19:03 39.50435 2.74427 1886 ft 115 kts 295°
2026-05-07 19:03 39.50758 2.73465 1693 ft 118 kts 297°
2026-05-07 19:03 39.51108 2.72514 1507 ft 116 kts 300°
2026-05-07 19:03 39.51536 2.71635 1296 ft 114 kts 313°
2026-05-07 19:04 39.52119 2.71012 1152 ft 103 kts 339°
2026-05-07 19:04 39.52793 2.70933 992 ft 99 kts 17°
2026-05-07 19:04 39.53359 2.71460 715 ft 105 kts 52°
2026-05-07 19:04 39.53702 2.72283 487 ft 103 kts 59°
2026-05-07 19:05 39.54060 2.73049 291 ft 95 kts 54°
2026-05-07 19:05 39.54279 2.73820 472 ft 92 kts 77°
2026-05-07 19:05 39.54331 2.74609 741 ft 85 kts 80°
2026-05-07 19:05 39.54409 2.75391 906 ft 91 kts 80°
2026-05-07 19:06 39.54263 2.76170 1111 ft 96 kts 124°
2026-05-07 19:06 39.53000 2.77243 1336 ft 111 kts 149°
2026-05-07 19:06 39.52329 2.77701 1538 ft 108 kts 147°
2026-05-07 19:07 39.51651 2.78084 1741 ft 109 kts 169°
2026-05-07 19:07 39.50883 2.77818 1771 ft 126 kts 213°
2026-05-07 19:07 39.50265 2.76982 1846 ft 131 kts 232°
2026-05-07 19:07 39.49740 2.76004 1895 ft 135 kts 236°
2026-05-07 19:08 39.49231 2.74954 1856 ft 140 kts 238°
2026-05-07 19:08 39.48721 2.73878 1770 ft 136 kts 238°
2026-05-07 19:08 39.48243 2.72876 1731 ft 125 kts 238°
2026-05-07 19:08 39.47800 2.71921 1730 ft 120 kts 238°
2026-05-07 19:09 39.47356 2.71033 1742 ft 117 kts 235°
2026-05-07 19:09 39.46890 2.70199 1786 ft 111 kts 231°
2026-05-07 19:09 39.46403 2.69435 1813 ft 111 kts 226°
2026-05-07 19:09 39.45883 2.68683 1838 ft 109 kts 225°
2026-05-07 19:10 39.45392 2.67986 1921 ft 108 kts 225°
2026-05-07 19:10 39.44881 2.67245 1910 ft 112 kts 225°
2026-05-07 19:10 39.44363 2.66507 1911 ft 112 kts 226°
2026-05-07 19:10 39.43871 2.65724 1907 ft 112 kts 231°
2026-05-07 19:11 39.43422 2.64911 1928 ft 112 kts 234°
2026-05-07 19:11 39.43009 2.64016 1856 ft 118 kts 240°
2026-05-07 19:11 39.42621 2.63080 1832 ft 118 kts 240°
2026-05-07 19:11 39.42241 2.62143 1828 ft 116 kts 241°
2026-05-07 19:12 39.41858 2.61235 1833 ft 115 kts 239°
2026-05-07 19:12 39.41451 2.60357 1868 ft 110 kts 235°
2026-05-07 19:12 39.41025 2.59580 2013 ft 101 kts 227°
2026-05-07 19:12 39.40581 2.58860 2081 ft 105 kts 230°
2026-05-07 19:13 39.40127 2.58066 2036 ft 113 kts 231°
2026-05-07 19:13 39.39675 2.57214 1993 ft 116 kts 233°
2026-05-07 19:13 39.39275 2.56331 1979 ft 115 kts 238°
2026-05-07 19:13 39.38908 2.55406 1937 ft 116 kts 239°
2026-05-07 19:14 39.38536 2.54488 1898 ft 116 kts 237°
2026-05-07 19:14 39.38131 2.53547 1775 ft 123 kts 237°
2026-05-07 19:14 39.37708 2.52574 1654 ft 125 kts 237°
2026-05-07 19:14 39.37293 2.51620 1648 ft 117 kts 237°
2026-05-07 19:15 39.36917 2.50744 1742 ft 107 kts 237°
2026-05-07 19:15 39.36566 2.49916 1828 ft 105 kts 237°
2026-05-07 19:15 39.36205 2.49069 1830 ft 110 kts 237°
2026-05-07 19:15 39.35833 2.48203 1833 ft 113 kts 237°
2026-05-07 19:16 39.35449 2.47306 1835 ft 115 kts 237°
2026-05-07 19:16 39.35057 2.46397 1836 ft 116 kts 237°
2026-05-07 19:16 39.34662 2.45480 1836 ft 117 kts 237°
2026-05-07 19:16 39.34264 2.44558 1836 ft 118 kts 237°
2026-05-07 19:17 39.33863 2.43634 1836 ft 117 kts 237°
2026-05-07 19:17 39.33854 2.42615 1825 ft 121 kts 303°
2026-05-07 19:17 39.34564 2.42227 1824 ft 113 kts 18°
2026-05-07 19:17 39.35134 2.42827 1833 ft 106 kts 53°
2026-05-07 19:18 39.35634 2.43533 1837 ft 110 kts 52°
2026-05-07 19:18 39.36158 2.44273 1839 ft 113 kts 52°
2026-05-07 19:18 39.36695 2.45033 1840 ft 115 kts 52°
2026-05-07 19:18 39.37236 2.45802 1840 ft 116 kts 52°
2026-05-07 19:19 39.37778 2.46572 1840 ft 116 kts 52°
2026-05-07 19:19 39.38322 2.47344 1840 ft 116 kts 52°
2026-05-07 19:19 39.38866 2.48117 1841 ft 117 kts 52°
2026-05-07 19:19 39.39412 2.48894 1841 ft 117 kts 52°
2026-05-07 19:20 39.39958 2.49671 1840 ft 117 kts 52°
2026-05-07 19:20 39.40502 2.50446 1840 ft 116 kts 52°
2026-05-07 19:20 39.41047 2.51222 1840 ft 117 kts 52°
2026-05-07 19:20 39.41585 2.51987 1840 ft 116 kts 52°
2026-05-07 19:21 39.42130 2.52762 1840 ft 117 kts 52°
2026-05-07 19:21 39.42675 2.53540 1840 ft 117 kts 52°
2026-05-07 19:21 39.43220 2.54316 1840 ft 117 kts 52°
2026-05-07 19:21 39.43764 2.55096 1841 ft 117 kts 51°
2026-05-07 19:22 39.44291 2.55886 1842 ft 115 kts 52°
2026-05-07 19:22 39.44809 2.56675 1841 ft 114 kts 52°
2026-05-07 19:22 39.45319 2.57455 1840 ft 113 kts 52°
2026-05-07 19:22 39.45822 2.58218 1840 ft 113 kts 52°
2026-05-07 19:23 39.46333 2.58990 1840 ft 113 kts 52°
2026-05-07 19:23 39.46841 2.59760 1840 ft 113 kts 52°
2026-05-07 19:23 39.47341 2.60538 1840 ft 112 kts 54°
2026-05-07 19:23 39.47834 2.61319 1839 ft 112 kts 53°
2026-05-07 19:24 39.48327 2.62097 1840 ft 112 kts 53°
2026-05-07 19:24 39.48822 2.62875 1840 ft 112 kts 53°
2026-05-07 19:24 39.49308 2.63660 1840 ft 112 kts 54°
2026-05-07 19:24 39.49789 2.64448 1840 ft 112 kts 54°
2026-05-07 19:25 39.50271 2.65239 1840 ft 112 kts 54°
2026-05-07 19:25 39.50753 2.66027 1837 ft 112 kts 54°
2026-05-07 19:25 39.51212 2.66798 1807 ft 103 kts 56°
2026-05-07 19:25 39.51600 2.67569 1694 ft 104 kts 61°
2026-05-07 19:26 39.51952 2.68387 1486 ft 103 kts 63°
2026-05-07 19:26 39.52285 2.69221 1203 ft 105 kts 63°
2026-05-07 19:26 39.52653 2.70036 912 ft 105 kts 57°
2026-05-07 19:26 39.53046 2.70820 649 ft 103 kts 56°
2026-05-07 19:27 39.53430 2.71554 497 ft 95 kts 58°
2026-05-07 19:27 39.53743 2.72308 306 ft 96 kts 63°
2026-05-07 19:27 39.54068 2.73060 132 ft 95 kts 57°
2026-05-07 19:27 39.54407 2.73756 38 ft 85 kts 58°
2026-05-07 19:28 39.54687 2.74350 27 ft 62 kts 59°
2026-05-07 19:28 39.54794 2.74524 24 ft 13 kts 327°
2026-05-07 19:28 39.54803 2.74369 24 ft 18 kts 268°
2026-05-07 19:28 39.54801 2.74265 25 ft 1 kts 268°